Regional Weather Roundup
Issued by NWS Little Rock, AR

Home | Current Version | Previous Version | Graphics & Text | Print | Product List | Glossary On
Versions: 1 2 3 4 5 6 7 8 9 10 11 12 13 14 15 16 17 18 19 20 21 22 23 24 25 26 27 28 29 30 31 32 33 34 35 36 37 38 39 40 41 42 43 44 45 46 47 48 49 50
673
ASUS44 KLZK 131505
RWRLZK

WEATHER ROUNDUP FOR ARKANSAS
NATIONAL WEATHER SERVICE LITTLE ROCK AR
900 AM CST SAT FEB 13 2016

NOTE: "FAIR" INDICATES FEW OR NO CLOUDS BELOW 12,000 FEET WITH NO
SIGNIFICANT WEATHER AND/OR OBSTRUCTIONS TO VISIBILITY.

ARZ001-003-010-029-131600-
NORTHWEST ARKANSAS

CITY           SKY/WX    TMP DP  RH WIND       PRES   REMARKS
FAYETTEVILLE   SUNNY     31  12  45 E13       30.50S WCI  21
FORT SMITH     SUNNY     38  14  37 E12       30.52R
HARRISON       CLOUDY    26   7  44 E7        30.54R WCI  18
BENTONVILLE    CLOUDY    30   7  37 E10       30.51S WCI  21
ROGERS         CLOUDY    29   7  39 NE13      30.51S WCI  19
SILOAM SPGS    SUNNY     32   7  34 E9        30.50S WCI  24
HIGHFILL       SUNNY     31   9  39 E12       30.50R WCI  22
SPRINGDALE     SUNNY     30   5  34 E12G17    30.52R WCI  21
$$

ARZ004-005-016-131600-
NORTH CENTRAL ARKANSAS

CITY           SKY/WX    TMP DP  RH WIND       PRES   REMARKS
BATESVILLE     CLOUDY    30   3  31 NE6       30.61S WCI  24
FLIPPIN        CLOUDY    28   5  37 E7        30.56R WCI  21
MTN HOME       CLOUDY    25   4  40 E7        30.56S WCI  17
$$

ARZ040-041-131600-
WEST CENTRAL ARKANSAS

CITY           SKY/WX    TMP DP  RH WIND       PRES   REMARKS
MENA           SUNNY     41  27  56 E10       30.48S
MOUNT IDA      SUNNY     39  21  48 VRB7      30.49R
$$

ARZ009-017-025-026-028-131600-
NORTHEAST ARKANSAS

CITY           SKY/WX    TMP DP  RH WIND       PRES   REMARKS
CORNING        FAIR      25   3  39 NE14      30.64S WCI  13
JONESBORO      CLOUDY    24   8  50 NE14      30.63R WCI  12
NEWPORT        CLOUDY    27   5  38 NE15      30.64R WCI  15
WALNUT RIDGE   CLOUDY    25   1  36 E14       30.64R WCI  13
BLYTHEVILLE    CLOUDY    26   9  48 NE14      30.63R WCI  14
$$

ARZ022-023-033-042-044-131600-
CENTRAL ARKANSAS

CITY           SKY/WX    TMP DP  RH WIND       PRES   REMARKS
LITTLE ROCK    MOSUNNY   35  17  47 NE12      30.60R WCI  27
N LITTLE ROCK  MOSUNNY   35  19  50 E9        30.60R WCI  28
JACKSONVILLE   SUNNY     33  16  48 E14       30.59R WCI  24
SEARCY         CLOUDY    31  11  43 NE14      30.63R WCI  21
HOT SPRINGS    SUNNY     37  14  38 E12       30.55R
RUSSELLVILLE   SUNNY     36   8  31 NE12      30.57R
CLINTON        FAIR      32   7  34 CALM      30.59S
$$

ARZ036-131600-
EAST ARKANSAS

CITY           SKY/WX    TMP DP  RH WIND       PRES   REMARKS
WEST MEMPHIS   CLOUDY    29  14  53 NE10G21   30.59R WCI  20
$$

ARZ050-053-066-070-073-131600-
SOUTHWEST ARKANSAS

CITY           SKY/WX    TMP DP  RH WIND       PRES   REMARKS
ARKADELPHIA    FAIR      40  20  45 E10       30.57R
CAMDEN         SUNNY     39  19  45 NE12      30.55R
TEXARKANA      SUNNY     42  25  50 E7G18     30.49S
EL DORADO      SUNNY     41  21  44 NE13      30.52R
DE QUEEN       SUNNY     43  28  55 E14       30.48R
$$

ARZ056-057-069-131600-
SOUTHEAST ARKANSAS

CITY           SKY/WX    TMP DP  RH WIND       PRES   REMARKS
PINE BLUFF     SUNNY     35  18  49 NE13      30.59R WCI  26
STUTTGART      SUNNY     32   9  37 NE17G23   30.60R WCI  21
MONTICELLO     SUNNY     37  17  44 E13       30.55R

$$






USA.gov is the U.S. government's official web portal to all federal, state and local government web resources and services.